Florence, SC

9:00 AM EST on November 24, 2017 (GMT -0500)
Florence Regional

Weather History for KFLO - April, 2013

Change the Weather History Date:

Friday, April 19, 2013

  Actual Average Record
Temperature  
Mean Temperature 73 °F 64 °F  
Max Temperature 87 °F 77 °F 92 °F (1995)
Min Temperature 58 °F 52 °F 32 °F (1983)
Degree Days  
Heating Degree Days 0 3  
Month to date heating degree days 65 95  
Since 1 July heating degree days 2276 2471  
Cooling Degree Days 8 2  
Month to date cooling degree days 59 35  
Year to date cooling degree days 88 59  
Growing Degree Days 26 (Base 50)    
Moisture  
Dew Point 65 °F    
Average Humidity 70    
Maximum Humidity 93    
Minimum Humidity 46    
Precipitation  
Precipitation 0.97 in 0.08 in 1.14 in (2014)
Month to date precipitation 2.45 1.63  
Year to date precipitation 11.46 11.11  
Sea Level Pressure  
Sea Level Pressure 29.91 in    
Wind  
Wind Speed 12 mph (South)    
Max Wind Speed 36 mph    
Max Gust Speed 46 mph    
Visibility 9 miles    
Events Rain    
T = Trace of Precipitation, MM = Missing Value Source: NWS Daily Summary

Daily Weather History Graph

Daily Weather History Graph

Search for Another Location

Airport or City:

Trip Planner

Search our weather history database for the weather conditions in past years. The results will help you decide how hot, cold, wet, or windy it might be!

Date:

Astronomy

Apr. 19, 2013 Rise Set
Actual Time 6:42 AM EDT 7:53 PM EDT
Civil Twilight 6:16 AM EDT 8:19 PM EDT
Nautical Twilight 5:45 AM EDT 8:50 PM EDT
Astronomical Twilight 5:13 AM EDT 9:23 PM EDT
Moon 1:52 PM EDT (4/19) 2:40 AM EDT (4/19)
Length of Visible Light 14h 03m
Length of Day
13h 11m
First Quarter, 61% of the Moon is Illuminated
Apr 19
First Quarter
Apr 25
Full
May 2
Last Quarter
May 9
New
May 18
First Quarter

Hourly Weather History & Observations

Time (EDT) Temp. Heat Index Dew Point Humidity Pressure Visibility Wind Dir Wind Speed Gust Speed Precip Events Conditions
12:53 AM 66.0 °F - 63.0 °F 90% 30.02 in 10.0 mi SE 3.5 mph - N/A   Scattered Clouds
1:08 AM 66.2 °F - 64.4 °F 94% 30.02 in 10.0 mi SE 4.6 mph - N/A   Mostly Cloudy
1:33 AM 64.4 °F - 62.6 °F 94% 30.01 in 8.0 mi SE 3.5 mph - N/A   Mostly Cloudy
1:53 AM 66.0 °F - 64.0 °F 93% 29.99 in 7.0 mi ESE 3.5 mph - N/A   Overcast
2:53 AM 66.9 °F - 64.9 °F 93% 29.97 in 6.0 mi South 5.8 mph - N/A   Overcast
3:53 AM 66.9 °F - 64.9 °F 93% 29.95 in 9.0 mi SSE 4.6 mph - N/A   Scattered Clouds
4:53 AM 66.9 °F - 64.9 °F 93% 29.94 in 10.0 mi South 6.9 mph - N/A   Scattered Clouds
5:53 AM 66.9 °F - 64.9 °F 93% 29.94 in 10.0 mi South 6.9 mph - N/A   Scattered Clouds
6:53 AM 66.9 °F - 64.9 °F 93% 29.95 in 9.0 mi South 5.8 mph - N/A   Partly Cloudy
7:53 AM 68.0 °F - 64.9 °F 90% 29.96 in 10.0 mi South 4.6 mph - N/A   Mostly Cloudy
8:38 AM 69.8 °F - 66.2 °F 88% 29.97 in 10.0 mi South 8.1 mph - N/A   Mostly Cloudy
8:46 AM 69.8 °F - 66.2 °F 88% 29.97 in 10.0 mi South 10.4 mph - N/A   Overcast
8:53 AM 70.0 °F - 66.9 °F 90% 29.96 in 10.0 mi South 10.4 mph - N/A   Overcast
9:53 AM 73.9 °F - 68.0 °F 82% 29.96 in 10.0 mi SSW 13.8 mph - N/A   Overcast
10:53 AM 80.1 °F 82.7 °F 68.0 °F 67% 29.93 in 10.0 mi SSW 20.7 mph 26.5 mph N/A   Mostly Cloudy
11:05 AM 80.6 °F 83.2 °F 68.0 °F 65% 29.94 in 10.0 mi SSW 18.4 mph 28.8 mph N/A   Scattered Clouds
11:53 AM 84.0 °F 86.5 °F 66.9 °F 56% 29.91 in 10.0 mi SSW 17.3 mph 26.5 mph N/A   Scattered Clouds
12:53 PM 84.0 °F 86.5 °F 66.9 °F 56% 29.88 in 10.0 mi SSW 23.0 mph 29.9 mph N/A   Mostly Cloudy
1:53 PM 84.9 °F 87.1 °F 66.0 °F 53% 29.84 in 10.0 mi South 17.3 mph 32.2 mph N/A   Mostly Cloudy
2:53 PM 87.1 °F 88.9 °F 64.9 °F 48% 29.83 in 10.0 mi South 23.0 mph 28.8 mph N/A   Clear
3:53 PM 84.9 °F 86.6 °F 64.9 °F 51% 29.81 in 10.0 mi South 19.6 mph 29.9 mph N/A   Scattered Clouds
4:53 PM 82.9 °F 84.6 °F 64.9 °F 54% 29.79 in 10.0 mi South 20.7 mph 28.8 mph N/A   Partly Cloudy
5:53 PM 81.0 °F 82.7 °F 64.9 °F 58% 29.79 in 10.0 mi South 20.7 mph 27.6 mph N/A   Clear
6:37 PM 71.6 °F - 62.6 °F 73% 29.87 in 10.0 mi West 32.2 mph 46.0 mph 0.00 in Rain Light Rain
6:53 PM 66.9 °F - 63.0 °F 87% 29.87 in 2.5 mi WSW 19.6 mph 31.1 mph 0.16 in Rain Heavy Rain
6:58 PM 66.2 °F - 64.4 °F 94% 29.86 in 1.5 mi WSW 9.2 mph 31.1 mph 0.11 in Rain Heavy Rain
7:25 PM 68.0 °F - 64.4 °F 88% 29.88 in 3.0 mi SW 10.4 mph 21.9 mph 0.51 in Rain Rain
7:53 PM 68.0 °F - 64.9 °F 90% 29.87 in 4.0 mi SSW 9.2 mph - 0.63 in Rain Rain
8:00 PM 68.0 °F - 64.4 °F 88% 29.88 in 6.0 mi SSW 9.2 mph - 0.02 in Rain Light Rain
8:18 PM 68.0 °F - 64.4 °F 88% 29.88 in 10.0 mi South 10.4 mph - 0.03 in Rain Light Rain
8:36 PM 66.2 °F - 64.4 °F 94% 29.88 in 7.0 mi SSW 10.4 mph 19.6 mph 0.04 in Rain Light Rain
8:53 PM 66.9 °F - 64.9 °F 93% 29.88 in 7.0 mi SSW 10.4 mph - 0.06 in Rain Light Rain
9:53 PM 66.9 °F - 64.9 °F 93% 29.86 in 10.0 mi SSW 4.6 mph - 0.01 in Rain Light Rain
10:10 PM 66.2 °F - 64.4 °F 94% 29.86 in 10.0 mi South 5.8 mph - 0.00 in Rain Light Rain
10:22 PM 66.2 °F - 64.4 °F 94% 29.86 in 10.0 mi South 6.9 mph - 0.00 in   Overcast
10:53 PM 66.9 °F - 64.9 °F 93% 29.85 in 10.0 mi South 10.4 mph - 0.00 in Rain Light Rain
11:53 PM 66.9 °F - 64.9 °F 93% 29.89 in 10.0 mi SSW 10.4 mph - 0.01 in   Overcast